FW9728 Weather Reports


time (UTC)temp
C
wind
direction
speed
KPH
gust
KPH
rain 1hr
cm
rain 24hr
cm
rain mn
cm
humidity
%
barometer
mb
20260510060043 18 0 0.0 0.0 0.00 0.00 0.00 92 1014.3
20260510054536 18 0 0.0 1.6 0.00 0.00 0.00 91 1014.3
20260510053043 18 0 0.0 1.6 0.00 0.00 0.00 90 1014.2
20260510051541 19 0 0.0 1.6 0.00 0.00 0.00 90 1014.0
20260510050038 20 0 0.0 0.0 0.00 0.00 0.00 89 1013.7
20260510044549 20 0 0.0 0.0 0.00 0.00 0.00 88 1013.6
20260510043044 20 0 0.0 0.0 0.00 0.00 0.00 87 1013.5
20260510041535 20 0 0.0 1.6 0.00 0.00 0.00 86 1013.4
20260510040042 21 0 0.0 0.0 0.00 0.00 0.00 86 1013.4
20260510034535 21 0 0.0 3.2 0.00 0.00 0.00 85 1013.2
20260510033054 21 0 0.0 1.6 0.00 0.00 0.00 85 1013.4
20260510031539 21 0 0.0 0.0 0.00 0.00 0.00 85 1013.2
20260510030045 21 0 0.0 0.0 0.00 0.00 0.00 85 1013.1
20260510024536 21 0 0.0 0.0 0.00 0.00 0.00 85 1012.9
20260510023037 21 0 0.0 0.0 0.00 0.00 0.00 85 1012.6
20260510021536 21 0 0.0 0.0 0.00 0.00 0.00 85 1012.3
20260510020034 21 0 0.0 0.0 0.00 0.00 0.00 85 1012.1
20260510014538 21 0 0.0 0.0 0.00 0.00 0.00 84 1012.0
20260510013038 21 0 0.0 0.0 0.00 0.00 0.00 83 1011.8
20260510011534 21 0 0.0 0.0 0.00 0.00 0.00 82 1011.7
20260510010036 22 0 0.0 1.6 0.00 0.00 0.00 82 1011.5
20260510004540 22 0 0.0 1.6 0.00 0.00 0.00 82 1011.4
20260510003038 22 0 0.0 0.0 0.00 0.00 0.00 81 1011.3
20260510001538 23 0 0.0 0.0 0.00 0.00 0.00 80 1011.1
20260510000044 23 0 0.0 0.0 0.00 0.00 0.00 77 1011.0
20260509234551 24 0 0.0 0.0 0.00 0.00 0.00 77 1011.0
20260509233038 24 0 0.0 0.0 0.00 0.00 0.00 75 1010.9
20260509231533 25 0 0.0 0.0 0.00 0.00 0.00 74 1010.7
20260509230034 25 0 0.0 0.0 0.00 0.00 0.00 71 1010.7
20260509224532 25 0 0.0 1.6 0.00 0.00 0.00 69 1010.6
20260509223044 26 0 0.0 1.6 0.00 0.00 0.00 65 1010.4
20260509221538 26 0 0.0 9.7 0.00 0.00 0.00 60 1010.3
20260509220035 26 0 0.0 3.2 0.00 0.00 0.00 62 1010.3
20260509214532 26 165 0.0 4.8 0.00 0.00 0.00 62 1010.2
20260509213033 26 216 0.0 4.8 0.00 0.00 0.00 59 1010.3
20260509211531 26 0 0.0 8.0 0.00 0.00 0.00 65 1010.4
20260509210038 26 0 0.0 0.0 0.00 0.00 0.00 62 1010.6
20260509204535 27 0 0.0 0.0 0.00 0.00 0.00 58 1010.6
20260509203035 28 0 0.0 1.6 0.00 0.00 0.00 49 1010.6
20260509201533 28 0 0.0 3.2 0.00 0.00 0.00 50 1010.8
20260509200050 28 187 1.6 4.8 0.00 0.00 0.00 49 1011.1
20260509194533 27 91 0.0 3.2 0.00 0.00 0.00 54 1011.2
20260509193042 27 0 0.0 1.6 0.00 0.00 0.00 54 1011.3
20260509191536 26 0 0.0 4.8 0.00 0.00 0.00 54 1011.4
20260509190036 26 354 0.0 3.2 0.00 0.00 0.00 56 1011.5
20260509184541 26 314 1.6 3.2 0.00 0.00 0.00 56 1011.5
20260509183038 26 0 0.0 1.6 0.00 0.00 0.00 57 1011.7
20260509181543 26 0 1.6 3.2 0.00 0.00 0.00 57 1011.8
20260509180033 25 86 0.0 1.6 0.00 0.00 0.00 59 1011.9
20260509174534 25 0 0.0 6.4 0.00 0.00 0.00 63 1012.0
20260509173042 25 0 0.0 1.6 0.00 0.00 0.00 65 1012.3
20260509171544 25 308 0.0 1.6 0.00 0.00 0.00 68 1012.1
20260509170037 25 0 0.0 1.6 0.00 0.00 0.00 66 1012.1
20260509164537 25 0 0.0 1.6 0.00 0.00 0.00 70 1012.0
20260509163035 24 0 0.0 1.6 0.00 0.00 0.00 70 1011.9
20260509161538 24 286 0.0 3.2 0.00 0.00 0.00 69 1011.9
20260509160039 23 271 0.0 3.2 0.00 0.00 0.00 72 1011.9
20260509154538 23 0 0.0 3.2 0.00 0.00 0.00 72 1012.0
20260509153040 23 243 0.0 3.2 0.00 0.00 0.00 75 1011.9
20260509151537 22 0 0.0 1.6 0.00 0.00 0.00 76 1012.0
20260509150035 21 0 0.0 0.0 0.00 0.00 0.00 78 1012.1
20260509144603 20 0 0.0 0.0 0.00 0.00 0.00 82 1012.2
20260509143042 -17 0.0 0.0 0.00 0.00 0.00 1012.2
20260509141540 -17 0.0 0.0 0.00 0.00 0.00 1012.5
20260509140038 -17 0.0 0.0 0.00 0.00 0.00 1012.5
20260509134533 -17 0.0 0.0 0.00 0.00 0.00 1012.6
20260509133035 -17 0.0 0.0 0.00 0.00 0.00 1012.6
20260509131539 -17 0.0 0.0 0.00 0.00 0.00 1012.5
20260509130034 -17 0.0 0.0 0.00 0.00 0.00 1012.5
20260509124547 -17 0.0 0.0 0.00 0.00 0.00 1012.3
20260509123037 -17 0.0 0.0 0.00 0.00 0.00 1012.0
20260509121536 -17 0.0 0.0 0.00 0.00 0.00 1011.9
20260509120032 -17 0.0 0.0 0.00 0.00 0.00 1011.7
20260509114537 -17 0.0 0.0 0.00 0.00 0.00 1011.6
20260509113031 -17 0.0 0.0 0.00 0.00 0.00 1011.4
20260509111535 -17 0.0 0.0 0.00 0.00 0.00 1011.1
20260509110035 -17 0.0 0.0 0.00 0.00 0.00 1010.9
20260509104536 13 0 0.0 0.0 0.00 0.00 0.00 94 1010.5
20260509103042 14 0 0.0 0.0 0.00 0.00 0.00 94 1010.2
20260509101537 14 0 0.0 0.0 0.00 0.00 0.00 94 1010.1
20260509100049 14 0 0.0 0.0 0.00 0.00 0.00 94 1010.2
20260509094536 14 0 0.0 0.0 0.00 0.00 0.00 94 1010.1
20260509093039 14 0 0.0 1.6 0.00 0.00 0.00 93 1010.2
20260509091537 15 0 0.0 0.0 0.00 0.00 0.00 92 1010.2
20260509090036 15 0 0.0 0.0 0.00 0.00 0.00 92 1010.4
20260509084536 15 0 0.0 0.0 0.00 0.00 0.00 91 1010.2
20260509083038 15 0 0.0 0.0 0.00 0.00 0.00 90 1010.3
20260509081544 16 0 0.0 0.0 0.00 0.00 0.00 90 1010.3
20260509080042 16 0 0.0 1.6 0.00 0.00 0.00 90 1010.5
20260509074539 16 0 0.0 1.6 0.00 0.00 0.00 89 1010.8
20260509073035 16 0 0.0 1.6 0.00 0.00 0.00 88 1010.7
20260509071535 17 0 0.0 1.6 0.00 0.00 0.00 86 1010.8
20260509070035 17 37 0.0 4.8 0.00 0.00 0.00 83 1010.9
20260509064538 17 331 1.6 6.4 0.00 0.00 0.00 84 1010.8
20260509063039 15 10 1.6 4.8 0.00 0.00 0.00 90 1010.9
20260509061545 15 0 0.0 0.0 0.00 0.00 0.00 92 1010.8